START_TIME,STEP,MOV.,AL01,t_acc.,AL02,t_acc.,E37,t_acc.,H21,t_acc.
1979-08-07 12:00:32.790 ,0,0,0.,24.0,0.,24.0,1.,24.0,0.,24.0
1979-08-07 12:00:56.790 ,1,1,1.,24.0,0.,24.0,0.,24.0,0.,24.0
1979-08-07 12:01:20.790 ,1,0,0.,24.0,0.,24.0,1.,24.0,0.,24.0
1979-08-07 12:01:44.790 ,2,1,0.,24.0,0.,24.0,0.,24.0,0.,24.0
1979-08-07 12:02:08.790 ,2,0,0.,24.0,1.,24.0,1.,24.0,0.,24.0
1979-08-07 12:02:32.790 ,3,1,0.,24.0,0.,24.0,0.,24.0,0.,24.0
1979-08-07 12:02:56.790 ,3,0,0.,24.0,0.,24.0,0.,24.0,0.,24.0
1979-08-07 12:03:20.790 ,4,1,1.,24.0,0.,24.0,0.,24.0,0.,24.0
1979-08-07 12:03:44.790 ,4,0,1.,24.0,0.,24.0,0.,24.0,0.,24.0
1979-08-07 12:05:20.790 ,6,0,0.,24.0,0.,24.0,0.,24.0,0.,24.0
1979-08-07 12:05:44.790 ,7,1,9.,24.0,0.,24.0,0.,24.0,0.,24.0
1979-08-07 12:06:08.790 ,7,0,34.,24.0,0.,24.0,0.,24.0,0.,24.0
1979-08-07 12:06:32.790 ,7,1,23.,24.0,0.,24.0,2.,24.0,0.,24.0
1979-08-07 12:06:56.790 ,7,0,25.,24.0,0.,24.0,0.,24.0,0.,24.0
1979-08-07 12:07:20.790 ,6,1,20.,24.0,0.,24.0,0.,24.0,0.,24.0
1979-08-07 12:07:44.790 ,6,0,1.,24.0,0.,24.0,0.,24.0,0.,24.0
1979-08-07 12:08:08.790 ,5,1,0.,24.0,0.,24.0,0.,24.0,0.,24.0
1979-08-07 12:08:32.790 ,5,0,0.,24.0,0.,24.0,0.,24.0,0.,24.0
1979-08-07 12:08:56.790 ,4,1,0.,24.0,0.,24.0,0.,24.0,0.,24.0
1979-08-07 12:09:20.790 ,4,0,0.,24.0,0.,24.0,1.,24.0,0.,24.0
1979-08-07 12:09:44.790 ,3,1,0.,24.0,0.,24.0,0.,24.0,0.,24.0
1979-08-07 12:10:08.790 ,3,0,1.,24.0,0.,24.0,0.,24.0,0.,24.0
1979-08-07 12:10:32.790 ,2,1,0.,24.0,0.,24.0,0.,24.0,0.,24.0
1979-08-07 12:10:56.790 ,2,0,0.,24.0,0.,24.0,1.,24.0,0.,24.0
1979-08-07 12:11:20.790 ,1,1,0.,24.0,0.,24.0,0.,24.0,0.,24.0
1979-08-07 12:11:44.790 ,1,0,0.,24.0,0.,24.0,0.,24.0,0.,24.0
1979-08-07 12:12:08.790 ,0,1,0.,24.0,0.,24.0,0.,24.0,0.,24.0
1979-08-07 12:12:32.790 ,0,0,0.,24.0,0.,24.0,0.,24.0,0.,24.0
1979-08-07 12:12:56.790 ,0,1,0.,24.0,0.,24.0,0.,24.0,0.,24.0
1979-08-07 12:13:20.790 ,0,0,0.,24.0,0.,24.0,0.,24.0,0.,24.0
1979-08-07 12:13:44.790 ,1,1,1.,24.0,0.,24.0,0.,24.0,0.,24.0
1979-08-07 12:14:32.790 ,2,1,0.,24.0,0.,24.0,1.,24.0,0.,24.0
1979-08-07 12:14:56.790 ,2,0,0.,24.0,0.,24.0,0.,24.0,0.,24.0
1979-08-07 12:15:20.790 ,3,1,0.,24.0,0.,24.0,1.,24.0,0.,24.0
1979-08-07 12:15:44.790 ,3,0,1.,24.0,0.,24.0,0.,24.0,0.,24.0
1979-08-07 12:16:08.790 ,4,1,0.,24.0,0.,24.0,0.,24.0,0.,24.0
1979-08-07 12:16:32.790 ,4,0,1.,24.0,0.,24.0,0.,24.0,0.,24.0
1979-08-07 12:16:56.790 ,5,1,0.,24.0,0.,24.0,0.,24.0,0.,24.0
1979-08-07 12:17:20.790 ,5,0,2.,24.0,0.,24.0,0.,24.0,0.,24.0
1979-08-07 12:17:44.790 ,6,1,0.,24.0,0.,24.0,0.,24.0,0.,24.0
1979-08-07 12:18:08.790 ,6,0,0.,24.0,0.,24.0,2.,24.0,0.,24.0
1979-08-07 12:18:32.790 ,7,0,4.,24.0,0.,24.0,0.,24.0,0.,24.0
1979-08-07 12:18:56.790 ,7,0,31.,24.0,0.,24.0,0.,24.0,0.,24.0
1979-08-07 12:19:20.790 ,5,1,17.,24.0,0.,24.0,0.,24.0,0.,24.0
1979-08-07 12:19:44.790 ,1,1,0.,24.0,0.,24.0,0.,24.0,0.,24.0
1979-08-07 12:20:56.790 ,5,1,15.,24.0,0.,24.0,0.,24.0,0.,24.0
1979-08-07 12:21:20.790 ,1,1,0.,24.0,0.,24.0,1.,24.0,0.,24.0
1979-08-07 12:21:44.790 ,2,1,1.,24.0,0.,24.0,1.,24.0,0.,24.0
1979-08-07 12:22:08.790 ,6,1,2.,24.0,0.,24.0,0.,24.0,0.,24.0
1979-08-07 12:25:44.790 ,0,0,12.,24.0,0.,24.0,0.,24.0,0.,24.0
1979-08-07 12:26:08.790 ,1,1,0.,24.0,0.,24.0,1.,24.0,0.,24.0
1979-08-07 13:04:23.790 ,0,0,,0,,0,,0,,0
1979-08-07 13:04:32.790 ,0,0,0.,24.0,0.,24.0,0.,24.0,0.,24.0
1979-08-07 13:04:32.790 ,0,0,0.,24.0,0.,24.0,0.,24.0,0.,24.0
1979-08-07 13:04:32.790 ,0,0,0.,24.0,0.,24.0,0.,24.0,0.,24.0
1979-08-07 13:04:56.790 ,5,1,1.,24.0,0.,24.0,0.,24.0,0.,24.0
1979-08-07 13:05:20.790 ,5,0,0.,24.0,0.,24.0,0.,24.0,0.,24.0
1979-08-07 13:06:08.790 ,6,0,0.,24.0,0.,24.0,1.,24.0,0.,24.0
1979-08-07 13:06:32.790 ,7,0,13.,24.0,0.,24.0,0.,24.0,0.,24.0
1979-08-07 13:06:56.790 ,7,0,30.,24.0,0.,24.0,1.,24.0,0.,24.0
1979-08-07 13:07:20.790 ,5,1,17.,24.0,0.,24.0,0.,24.0,0.,24.0
1979-08-07 13:07:44.790 ,1,1,0.,24.0,0.,24.0,2.,24.0,0.,24.0
1979-08-07 13:08:08.790 ,2,1,0.,24.0,0.,24.0,2.,24.0,0.,24.0
1979-08-07 13:08:32.790 ,6,1,0.,24.0,0.,24.0,0.,24.0,0.,24.0
1979-08-07 13:08:56.790 ,5,1,11.,24.0,1.,24.0,0.,24.0,0.,24.0
1979-08-07 13:09:20.790 ,1,1,0.,24.0,1.,24.0,0.,24.0,0.,24.0
1979-08-07 13:09:44.790 ,2,1,0.,24.0,0.,24.0,0.,24.0,0.,24.0
1979-08-07 13:10:08.790 ,6,1,0.,24.0,0.,24.0,0.,24.0,0.,24.0
1979-08-07 13:10:32.790 ,5,1,19.,24.0,0.,24.0,0.,24.0,0.,24.0
1979-08-07 13:10:56.790 ,1,1,1.,24.0,0.,24.0,0.,24.0,0.,24.0
1979-08-07 13:10:56.790 ,1,1,1.,24.0,0.,24.0,0.,24.0,0.,24.0
1979-08-07 13:11:20.790 ,2,1,0.,24.0,0.,24.0,1.,24.0,0.,24.0
1979-08-07 13:11:44.790 ,6,1,0.,24.0,0.,24.0,1.,24.0,0.,24.0
1979-08-07 13:12:08.790 ,5,1,17.,24.0,0.,24.0,1.,24.0,0.,24.0
1979-08-07 13:12:32.790 ,1,1,0.,24.0,0.,24.0,0.,24.0,0.,24.0
1979-08-07 13:12:56.790 ,2,1,0.,24.0,0.,24.0,0.,24.0,0.,24.0
1979-08-07 13:13:20.790 ,6,1,0.,24.0,0.,24.0,0.,24.0,0.,24.0
1979-08-07 13:13:20.790 ,6,1,0.,24.0,0.,24.0,0.,24.0,0.,24.0
1979-08-07 13:13:44.790 ,5,1,15.,24.0,0.,24.0,2.,24.0,0.,24.0
1979-08-07 13:14:08.790 ,1,1,0.,24.0,0.,24.0,1.,24.0,0.,24.0
1979-08-07 13:14:32.790 ,2,1,1.,24.0,0.,24.0,1.,24.0,0.,24.0
1979-08-07 13:14:56.790 ,6,1,0.,24.0,0.,24.0,1.,24.0,0.,24.0
1979-08-07 13:15:20.790 ,5,1,13.,24.0,0.,24.0,0.,24.0,0.,24.0
1979-08-07 13:15:44.790 ,1,1,0.,24.0,0.,24.0,0.,24.0,0.,24.0
1979-08-07 13:16:08.790 ,2,1,0.,24.0,0.,24.0,1.,24.0,0.,24.0
1979-08-07 13:16:32.790 ,6,1,0.,24.0,0.,24.0,0.,24.0,0.,24.0
1979-08-07 13:16:56.790 ,5,1,10.,24.0,0.,24.0,1.,24.0,0.,24.0
1979-08-07 13:17:20.790 ,1,1,0.,24.0,0.,24.0,0.,24.0,0.,24.0
1979-08-07 13:17:44.790 ,0,0,0.,24.0,0.,24.0,0.,24.0,0.,24.0
1979-08-07 13:18:08.790 ,0,0,0.,24.0,0.,24.0,0.,24.0,0.,24.0
1979-08-07 13:18:32.790 ,5,1,10.,24.0,0.,24.0,0.,24.0,0.,24.0
1979-08-07 13:18:56.790 ,5,0,0.,24.0,0.,24.0,1.,24.0,0.,24.0
1979-08-07 13:19:20.790 ,4,1,0.,24.0,0.,24.0,0.,24.0,0.,24.0
1979-08-07 13:19:44.790 ,4,0,0.,24.0,0.,24.0,0.,24.0,0.,24.0
1979-08-07 13:19:44.790 ,0,0,0.,24.0,0.,24.0,0.,24.0,0.,24.0
1979-08-07 13:19:44.790 ,0,0,0.,24.0,0.,24.0,0.,24.0,0.,24.0
1979-08-07 13:20:08.790 ,3,1,0.,24.0,1.,24.0,2.,24.0,0.,24.0
1979-08-07 13:20:32.790 ,3,0,0.,24.0,0.,24.0,0.,24.0,0.,24.0
1979-08-07 13:20:56.790 ,2,1,0.,24.0,0.,24.0,0.,24.0,0.,24.0
1979-08-07 13:21:20.790 ,2,0,1.,24.0,0.,24.0,2.,24.0,0.,24.0
1979-08-07 13:21:44.790 ,1,1,0.,24.0,0.,24.0,2.,24.0,0.,24.0
1979-08-07 13:22:08.790 ,1,0,0.,24.0,0.,24.0,0.,24.0,0.,24.0
1979-08-07 13:22:32.790 ,0,1,0.,24.0,0.,24.0,0.,24.0,0.,24.0
1979-08-07 13:22:56.790 ,0,0,0.,24.0,0.,24.0,1.,24.0,0.,24.0
1979-08-07 13:23:20.790 ,0,1,0.,24.0,0.,24.0,2.,24.0,0.,24.0
1979-08-07 13:23:44.790 ,0,0,0.,24.0,0.,24.0,2.,24.0,0.,24.0
1979-08-07 13:24:08.790 ,1,1,0.,24.0,0.,24.0,1.,24.0,0.,24.0
1979-08-07 13:24:32.790 ,1,0,0.,24.0,0.,24.0,0.,24.0,0.,24.0
1979-08-07 13:24:56.790 ,2,1,0.,24.0,0.,24.0,2.,24.0,0.,24.0
1979-08-07 13:25:20.790 ,2,0,1.,24.0,0.,24.0,0.,24.0,0.,24.0
1979-08-07 13:25:44.790 ,3,1,0.,24.0,0.,24.0,0.,24.0,0.,24.0
1979-08-07 13:26:08.790 ,3,0,0.,24.0,1.,24.0,0.,24.0,0.,24.0
1979-08-07 13:26:32.790 ,4,1,0.,24.0,0.,24.0,2.,24.0,0.,24.0
1979-08-07 13:26:56.790 ,4,0,1.,24.0,0.,24.0,1.,24.0,0.,24.0
1979-08-07 13:26:56.790 ,0,0,1.,24.0,0.,24.0,1.,24.0,0.,24.0
1979-08-07 13:27:20.790 ,5,1,0.,24.0,0.,24.0,0.,24.0,0.,24.0
1979-08-07 13:27:44.790 ,5,0,0.,24.0,0.,24.0,1.,24.0,0.,24.0
1979-08-07 13:28:08.790 ,6,1,0.,24.0,0.,24.0,1.,24.0,0.,24.0
1979-08-07 13:28:32.790 ,6,0,0.,24.0,0.,24.0,1.,24.0,0.,24.0
1979-08-07 13:28:56.790 ,7,1,7.,24.0,1.,24.0,0.,24.0,0.,24.0
1979-08-07 13:29:20.790 ,7,0,34.,24.0,0.,24.0,1.,24.0,0.,24.0
1979-08-07 13:29:44.790 ,7,1,39.,24.0,0.,24.0,1.,24.0,0.,24.0
1979-08-07 13:30:08.790 ,7,0,42.,24.0,0.,24.0,1.,24.0,0.,24.0
1979-08-07 13:30:32.790 ,6,1,24.,24.0,0.,24.0,0.,24.0,0.,24.0
1979-08-07 13:30:56.790 ,6,0,1.,24.0,0.,24.0,1.,24.0,0.,24.0
1979-08-07 13:31:20.790 ,5,1,0.,24.0,0.,24.0,1.,24.0,0.,24.0
1979-08-07 13:31:44.790 ,5,0,0.,24.0,0.,24.0,1.,24.0,0.,24.0
1979-08-07 13:32:08.790 ,4,1,0.,24.0,0.,24.0,2.,24.0,0.,24.0
1979-08-07 13:32:32.790 ,4,0,0.,24.0,0.,24.0,0.,24.0,0.,24.0
1979-08-07 13:32:56.790 ,3,1,0.,24.0,0.,24.0,0.,24.0,0.,24.0
1979-08-07 13:33:20.790 ,3,0,0.,24.0,0.,24.0,0.,24.0,0.,24.0
1979-08-07 13:33:44.790 ,2,1,0.,24.0,0.,24.0,0.,24.0,0.,24.0
1979-08-07 13:34:08.790 ,2,0,0.,24.0,0.,24.0,0.,24.0,0.,24.0
1979-08-07 13:34:32.790 ,1,1,0.,24.0,0.,24.0,0.,24.0,0.,24.0
1979-08-07 13:34:56.790 ,1,0,0.,24.0,0.,24.0,2.,24.0,0.,24.0
1979-08-07 13:35:20.790 ,0,1,0.,24.0,0.,24.0,0.,24.0,0.,24.0
1979-08-07 13:35:44.790 ,0,0,0.,24.0,0.,24.0,0.,24.0,0.,24.0
1979-08-07 13:36:08.790 ,0,1,0.,24.0,0.,24.0,2.,24.0,0.,24.0
1979-08-07 13:36:32.790 ,0,0,0.,24.0,0.,24.0,1.,24.0,0.,24.0
1979-08-07 13:36:56.790 ,1,1,0.,24.0,0.,24.0,3.,24.0,0.,24.0
1979-08-07 13:37:20.790 ,1,0,0.,24.0,0.,24.0,1.,24.0,0.,24.0
1979-08-07 13:37:44.790 ,2,1,0.,24.0,0.,24.0,1.,24.0,0.,24.0
1979-08-07 13:38:08.790 ,2,0,1.,24.0,0.,24.0,4.,24.0,0.,24.0
1979-08-07 13:38:32.790 ,3,1,0.,24.0,0.,24.0,1.,24.0,0.,24.0
1979-08-07 13:38:56.790 ,3,0,,0,,0,,0,,0
1979-08-07 13:39:20.790 ,4,1,0.,24.0,0.,24.0,1.,24.0,0.,24.0
1979-08-07 13:39:44.790 ,4,0,0.,24.0,0.,24.0,0.,24.0,0.,24.0
1979-08-07 13:40:08.790 ,5,1,0.,24.0,1.,24.0,1.,24.0,0.,24.0
1979-08-07 13:40:32.790 ,5,0,0.,24.0,0.,24.0,2.,24.0,0.,24.0
1979-08-07 13:40:56.790 ,6,1,0.,24.0,0.,24.0,1.,24.0,0.,24.0
1979-08-07 13:41:20.790 ,6,0,0.,24.0,0.,24.0,1.,24.0,0.,24.0
1979-08-07 13:41:44.790 ,7,1,6.,24.0,0.,24.0,1.,24.0,0.,24.0
1979-08-07 13:42:08.790 ,7,0,34.,24.0,0.,24.0,5.,24.0,0.,24.0
1979-08-07 13:42:32.790 ,7,1,22.,24.0,0.,24.0,1.,24.0,0.,24.0
1979-08-07 13:42:56.790 ,7,0,29.,24.0,0.,24.0,1.,24.0,0.,24.0
1979-08-07 13:43:20.790 ,6,1,32.,24.0,0.,24.0,0.,24.0,0.,24.0
1979-08-07 13:43:44.790 ,6,0,0.,24.0,0.,24.0,1.,24.0,0.,24.0
1979-08-07 13:44:08.790 ,5,1,0.,24.0,0.,24.0,1.,24.0,0.,24.0
1979-08-07 13:44:32.790 ,5,0,0.,24.0,0.,24.0,0.,24.0,0.,24.0
1979-08-07 13:44:56.790 ,4,1,1.,24.0,0.,24.0,2.,24.0,0.,24.0
1979-08-07 13:45:20.790 ,4,0,1.,24.0,0.,24.0,2.,24.0,0.,24.0
1979-08-07 13:45:44.790 ,3,1,0.,24.0,0.,24.0,1.,24.0,0.,24.0
1979-08-07 13:46:08.790 ,3,0,0.,24.0,0.,24.0,0.,24.0,0.,24.0
1979-08-07 13:46:32.790 ,2,1,0.,24.0,0.,24.0,2.,24.0,0.,24.0
1979-08-07 13:46:56.790 ,2,0,0.,24.0,0.,24.0,1.,24.0,0.,24.0
1979-08-07 13:47:20.790 ,1,1,0.,24.0,0.,24.0,1.,24.0,0.,24.0
1979-08-07 13:47:44.790 ,1,0,1.,24.0,0.,24.0,3.,24.0,0.,24.0
1979-08-07 13:48:08.790 ,0,1,0.,24.0,0.,24.0,1.,24.0,0.,24.0
1979-08-07 13:48:32.790 ,0,0,1.,24.0,0.,24.0,0.,24.0,0.,24.0
1979-08-07 13:48:56.790 ,0,1,1.,24.0,0.,24.0,1.,24.0,0.,24.0
1979-08-07 13:49:20.790 ,0,0,0.,24.0,0.,24.0,0.,24.0,0.,24.0
1979-08-07 13:49:44.790 ,1,1,0.,24.0,0.,24.0,0.,24.0,0.,24.0
1979-08-07 13:50:08.790 ,1,0,1.,24.0,1.,24.0,1.,24.0,0.,24.0
1979-08-07 13:50:32.790 ,2,1,0.,24.0,0.,24.0,0.,24.0,0.,24.0
1979-08-07 13:50:56.790 ,2,0,1.,24.0,0.,24.0,0.,24.0,0.,24.0
1979-08-07 13:51:20.790 ,3,1,0.,24.0,0.,24.0,0.,24.0,0.,24.0
1979-08-07 13:51:44.790 ,3,0,0.,24.0,0.,24.0,0.,24.0,0.,24.0
1979-08-07 13:52:08.790 ,4,1,0.,24.0,0.,24.0,0.,24.0,0.,24.0
1979-08-07 13:52:32.790 ,4,0,0.,24.0,0.,24.0,0.,24.0,0.,24.0
1979-08-07 13:54:08.790 ,6,0,0.,24.0,0.,24.0,0.,24.0,0.,24.0
1979-08-07 13:54:32.790 ,7,0,4.,24.0,0.,24.0,0.,24.0,0.,24.0
1979-08-07 13:54:56.790 ,0,0,,0,,0,,0,,0
1979-08-07 14:14:23.790 ,0,0,,0,,0,,0,,0
1979-08-07 14:14:32.790 ,4,1,0.,24.0,1.,24.0,0.,24.0,0.,24.0
1979-08-07 14:14:56.790 ,4,0,1.,24.0,0.,24.0,1.,24.0,0.,24.0
1979-08-07 14:15:20.790 ,5,1,0.,24.0,0.,24.0,1.,24.0,0.,24.0
1979-08-07 14:15:44.790 ,5,0,0.,24.0,0.,24.0,1.,24.0,0.,24.0
1979-08-07 14:16:08.790 ,6,1,0.,24.0,0.,24.0,1.,24.0,0.,24.0
1979-08-07 14:16:32.790 ,6,0,1.,24.0,0.,24.0,0.,24.0,0.,24.0
1979-08-07 14:16:56.790 ,7,1,8.,24.0,0.,24.0,0.,24.0,0.,24.0
1979-08-07 14:17:20.790 ,7,0,31.,24.0,0.,24.0,0.,24.0,0.,24.0
1979-08-07 14:17:44.790 ,7,1,26.,24.0,0.,24.0,0.,24.0,0.,24.0
1979-08-07 14:18:08.790 ,7,0,36.,24.0,0.,24.0,1.,24.0,0.,24.0
1979-08-07 14:18:32.790 ,6,1,24.,24.0,0.,24.0,0.,24.0,1.,24.0
1979-08-07 14:18:56.790 ,6,0,0.,24.0,0.,24.0,1.,24.0,0.,24.0
1979-08-07 14:19:20.790 ,5,1,2.,24.0,0.,24.0,2.,24.0,0.,24.0
1979-08-07 14:19:44.790 ,5,0,0.,24.0,0.,24.0,1.,24.0,0.,24.0
1979-08-07 14:20:08.790 ,4,1,0.,24.0,0.,24.0,1.,24.0,0.,24.0
1979-08-07 14:20:32.790 ,4,0,0.,24.0,0.,24.0,1.,24.0,0.,24.0
1979-08-07 14:20:56.790 ,3,1,0.,24.0,0.,24.0,0.,24.0,0.,24.0
1979-08-07 14:21:20.790 ,3,0,1.,24.0,0.,24.0,1.,24.0,0.,24.0
1979-08-07 14:21:44.790 ,2,1,0.,24.0,0.,24.0,0.,24.0,0.,24.0
1979-08-07 14:22:08.790 ,2,0,0.,24.0,0.,24.0,1.,24.0,0.,24.0
1979-08-07 14:22:32.790 ,1,1,0.,24.0,0.,24.0,0.,24.0,0.,24.0
1979-08-07 14:22:56.790 ,1,0,0.,24.0,1.,24.0,0.,24.0,0.,24.0
1979-08-07 14:23:20.790 ,0,1,0.,24.0,0.,24.0,0.,24.0,0.,24.0
1979-08-07 14:23:44.790 ,0,0,0.,24.0,0.,24.0,1.,24.0,0.,24.0
1979-08-07 14:24:08.790 ,0,1,0.,24.0,0.,24.0,1.,24.0,0.,24.0
1979-08-07 14:24:32.790 ,0,0,0.,24.0,0.,24.0,1.,24.0,0.,24.0
1979-08-07 14:24:56.790 ,1,1,0.,24.0,0.,24.0,0.,24.0,0.,24.0
1979-08-07 14:25:20.790 ,1,0,1.,24.0,0.,24.0,0.,24.0,0.,24.0
1979-08-07 14:25:44.790 ,2,1,0.,24.0,0.,24.0,0.,24.0,0.,24.0
1979-08-07 14:26:08.790 ,2,0,0.,24.0,0.,24.0,0.,24.0,0.,24.0
1979-08-07 14:26:32.790 ,3,1,0.,24.0,0.,24.0,1.,24.0,0.,24.0
1979-08-07 14:26:56.790 ,3,0,0.,24.0,0.,24.0,0.,24.0,0.,24.0
1979-08-07 14:27:20.790 ,4,1,0.,24.0,0.,24.0,0.,24.0,0.,24.0
1979-08-07 14:27:44.790 ,4,0,1.,24.0,0.,24.0,1.,24.0,0.,24.0
1979-08-07 14:28:56.790 ,0,0,0.,24.0,0.,24.0,2.,24.0,0.,24.0
1979-08-07 14:29:20.790 ,0,0,0.,24.0,0.,24.0,0.,24.0,0.,24.0
1979-08-07 14:29:44.790 ,7,1,7.,24.0,0.,24.0,0.,24.0,0.,24.0
1979-08-07 14:30:08.790 ,7,0,41.,24.0,0.,24.0,0.,24.0,0.,24.0
1979-08-07 14:30:32.790 ,7,1,25.,24.0,0.,24.0,0.,24.0,0.,24.0
1979-08-07 14:30:56.790 ,7,0,29.,24.0,0.,24.0,1.,24.0,0.,24.0
1979-08-07 14:31:20.790 ,6,1,26.,24.0,0.,24.0,1.,24.0,0.,24.0
1979-08-07 14:31:44.790 ,6,0,0.,24.0,0.,24.0,0.,24.0,0.,24.0
1979-08-07 14:32:08.790 ,5,1,0.,24.0,0.,24.0,1.,24.0,0.,24.0
1979-08-07 14:32:32.790 ,5,0,0.,24.0,0.,24.0,1.,24.0,0.,24.0
1979-08-07 14:32:56.790 ,4,1,0.,24.0,0.,24.0,0.,24.0,0.,24.0
1979-08-07 14:33:20.790 ,4,0,1.,24.0,0.,24.0,0.,24.0,0.,24.0
1979-08-07 14:33:44.790 ,3,1,0.,24.0,0.,24.0,3.,24.0,0.,24.0
1979-08-07 14:34:08.780 ,3,0,1.,24.0,0.,24.0,0.,24.0,0.,24.0
1979-08-07 14:34:32.790 ,2,1,0.,24.0,0.,24.0,0.,24.0,0.,24.0
1979-08-07 14:34:56.790 ,2,0,0.,24.0,0.,24.0,1.,24.0,0.,24.0
1979-08-07 14:35:20.790 ,1,1,0.,24.0,0.,24.0,0.,24.0,0.,24.0
1979-08-07 14:35:44.790 ,1,0,0.,24.0,0.,24.0,0.,24.0,0.,24.0
1979-08-07 14:36:08.790 ,0,0,0.,24.0,1.,24.0,0.,24.0,0.,24.0
1979-08-07 14:36:32.790 ,0,0,1.,24.0,0.,24.0,1.,24.0,0.,24.0
1979-08-07 14:36:56.790 ,0,1,1.,24.0,0.,24.0,0.,24.0,0.,24.0
1979-08-07 14:37:20.790 ,0,0,0.,24.0,0.,24.0,0.,24.0,0.,24.0
1979-08-07 14:37:44.790 ,1,1,0.,24.0,0.,24.0,0.,24.0,0.,24.0
1979-08-07 14:38:08.790 ,1,0,1.,24.0,0.,24.0,0.,24.0,0.,24.0
1979-08-07 14:38:32.790 ,2,1,1.,24.0,0.,24.0,0.,24.0,0.,24.0
1979-08-07 14:38:56.790 ,2,0,0.,24.0,0.,24.0,0.,24.0,0.,24.0
1979-08-07 14:39:20.790 ,3,1,0.,24.0,0.,24.0,0.,24.0,0.,24.0
1979-08-07 14:39:44.790 ,3,0,0.,24.0,0.,24.0,2.,24.0,0.,24.0
1979-08-07 14:40:08.790 ,4,1,0.,24.0,0.,24.0,0.,24.0,0.,24.0
1979-08-07 14:40:32.790 ,4,0,0.,24.0,0.,24.0,0.,24.0,0.,24.0
1979-08-07 14:40:56.790 ,5,1,0.,24.0,0.,24.0,0.,24.0,0.,24.0
1979-08-07 14:41:20.790 ,5,0,0.,24.0,0.,24.0,1.,24.0,0.,24.0
1979-08-07 14:41:44.790 ,6,1,0.,24.0,0.,24.0,1.,24.0,0.,24.0
1979-08-07 14:42:08.790 ,6,0,0.,24.0,0.,24.0,0.,24.0,0.,24.0
1979-08-07 14:42:32.790 ,7,0,9.,24.0,0.,24.0,0.,24.0,0.,24.0
1979-08-07 14:42:56.790 ,7,0,40.,24.0,0.,24.0,0.,24.0,0.,24.0
1979-08-07 14:43:20.790 ,5,1,22.,24.0,0.,24.0,0.,24.0,0.,24.0
1979-08-07 14:43:44.790 ,1,1,0.,24.0,0.,24.0,0.,24.0,0.,24.0
1979-08-07 14:44:08.790 ,2,1,0.,24.0,0.,24.0,0.,24.0,0.,24.0
1979-08-07 14:44:32.790 ,6,1,0.,24.0,0.,24.0,0.,24.0,0.,24.0
1979-08-07 14:44:56.790 ,5,1,13.,24.0,0.,24.0,0.,24.0,0.,24.0
1979-08-07 14:45:20.790 ,1,1,0.,24.0,0.,24.0,1.,24.0,0.,24.0
1979-08-07 14:45:44.790 ,2,1,0.,24.0,0.,24.0,1.,24.0,0.,24.0
1979-08-07 14:46:08.790 ,6,1,0.,24.0,0.,24.0,0.,24.0,0.,24.0
1979-08-07 14:46:32.790 ,5,1,16.,24.0,0.,24.0,0.,24.0,0.,24.0
1979-08-07 14:46:56.790 ,1,1,0.,24.0,0.,24.0,0.,24.0,0.,24.0
1979-08-07 14:47:20.790 ,2,1,0.,24.0,0.,24.0,1.,24.0,0.,24.0
1979-08-07 14:47:44.790 ,6,1,0.,24.0,0.,24.0,1.,24.0,0.,24.0
1979-08-07 14:48:56.780 ,0,0,0.,24.0,0.,24.0,0.,24.0,0.,24.0
1979-08-07 14:49:20.780 ,6,1,0.,24.0,0.,24.0,0.,24.0,0.,24.0
1979-08-07 14:49:44.780 ,5,1,22.,24.0,0.,24.0,0.,24.0,0.,24.0
1979-08-07 14:50:08.780 ,1,1,0.,24.0,0.,24.0,0.,24.0,0.,24.0
1979-08-07 14:50:32.780 ,2,1,0.,24.0,0.,24.0,0.,24.0,0.,24.0
1979-08-07 14:50:56.780 ,6,1,0.,24.0,0.,24.0,0.,24.0,0.,24.0
1979-08-07 14:51:20.780 ,5,1,18.,24.0,0.,24.0,0.,24.0,0.,24.0
1979-08-07 14:51:44.780 ,1,1,0.,24.0,0.,24.0,0.,24.0,0.,24.0
1979-08-07 14:52:08.780 ,2,1,0.,24.0,0.,24.0,0.,24.0,0.,24.0
1979-08-07 14:52:32.780 ,6,1,0.,24.0,0.,24.0,0.,24.0,0.,24.0
1979-08-07 14:52:56.780 ,5,1,17.,24.0,0.,24.0,0.,24.0,0.,24.0
1979-08-07 14:53:20.780 ,1,1,0.,24.0,0.,24.0,0.,24.0,0.,24.0
1979-08-07 14:53:44.780 ,0,0,0.,24.0,0.,24.0,0.,24.0,0.,24.0
1979-08-07 14:54:08.780 ,0,0,0.,24.0,0.,24.0,0.,24.0,0.,24.0
1979-08-07 14:54:32.780 ,5,1,12.,24.0,0.,24.0,0.,24.0,0.,24.0
1979-08-07 14:54:56.780 ,5,0,1.,24.0,0.,24.0,0.,24.0,0.,24.0
1979-08-07 14:55:20.780 ,4,1,0.,24.0,0.,24.0,0.,24.0,0.,24.0
1979-08-07 14:55:44.780 ,4,0,0.,24.0,0.,24.0,0.,24.0,0.,24.0
1979-08-07 14:56:08.780 ,3,1,0.,24.0,0.,24.0,0.,24.0,0.,24.0
1979-08-07 14:56:32.780 ,3,0,0.,24.0,0.,24.0,0.,24.0,0.,24.0
1979-08-07 14:56:56.780 ,2,1,0.,24.0,0.,24.0,0.,24.0,0.,24.0
1979-08-07 14:57:20.780 ,2,0,0.,24.0,0.,24.0,0.,24.0,0.,24.0
1979-08-07 14:57:44.780 ,1,1,0.,24.0,1.,24.0,1.,24.0,0.,24.0
1979-08-07 14:58:08.780 ,1,0,0.,24.0,0.,24.0,0.,24.0,0.,24.0
1979-08-07 14:58:32.780 ,0,1,0.,24.0,0.,24.0,1.,24.0,0.,24.0
1979-08-07 14:58:56.780 ,0,0,1.,24.0,0.,24.0,1.,24.0,0.,24.0
1979-08-07 14:59:20.780 ,0,1,0.,24.0,0.,24.0,0.,24.0,0.,24.0
1979-08-07 14:59:44.780 ,0,0,0.,24.0,0.,24.0,0.,24.0,0.,24.0
1979-08-07 15:00:08.780 ,1,1,0.,24.0,0.,24.0,0.,24.0,0.,24.0
